STARLINK-34523, 64475

Orbit data source: Space-Track

STARLINK-34523, 64475 is a payload satellite owned by SpaceX/Seattle (US) in LEO that was launched on Mon, 23 Jun 2025 UTC via an FALCON 9 launch vehicle from the Air Force Eastern Test Range (AFETR). Payload-class satellites include a variety of spacecraft equipped with specific instruments for various scientific and technological missions. These include communications satellites like Starlink; space stations such as the ISS; scientific satellites like the Hubble; Earth observation satellites from companies like Planet Labs, Umbra, and HawkEye 360; GPS; miniature CubeSats for education and research; and military/defense satellites.

Loading next visibility...
Identifier
64475, 2025-133D
Orbit
LEO
Country
Flag of USUS
Related business
Manufacturer
SpaceX/Seattle
Mission
Operational Commercial Communications
Bus & Motor
STARLINK V2MO, Unknown motor
Mass
575 kg wet, ~530 kg dry
Launch date (UTC)
2025-06-23 (1 year ago)
Launch vehicle
FALCON 9
Launch site
Air Force Eastern Test Range (AFETR)
Object type
Payload
Rocket body
Debris
Shape & HBR
Box + 2 Pan, 17.7 m
Radar Cross Section
36.964 m², Large (>1 m²)

Expand to show TLE details & history
Last TLE update: 1 day ago

TLE from 1 day ago
0 STARLINK-34523
1 64475U 25133D   26170.78767675 -.00022595  00000-0 -65954-3 0  9996
2 64475  53.1608 359.4750 0002009  41.9222 318.1934 15.34400076 56847
Epoch: 2026-06-19T18:54Z
TLE epoch observation values (Epoch: 2026-06-19T18:54:15.271Z)
Latitude
-0.00002°
Longitude
167.89972°
Altitude
462.58 km
Speed
7.637 km/s
True Right ascension
23h 57m 53s
True Declination
0° 00' 00"
Sunlit
Object was in daylight at epoch
Visualization orbit readout
Latitude
Unknown
Longitude
Unknown
Altitude
Unknown
Speed
Unknown
Apparent Right ascension
Unknown
Apparent Declination
Unknown
Sunlit
N/A
Visualization observer readout
Local Sidereal Time
10:18:45
Azimuth
Unknown
Elevation
Unknown
Doppler factor
Unknown
Orbital elements
Apogee altitude
464.334 km
Perigee altitude
461.585 km
Semi-major axis
6,841.097 km
Eccentricity
0.0002
Inclination
53.1608°
RAAN
359.475°
Arg. of periapsis
41.9222°
True anomaly
318.17805°
Mean anomaly
318.1934°
Eccentric anomaly
318.18573°
Mean motion
3.83579 °/min
Orbital period
93.85 mins
BSTAR
-0.00065954
Loading maneuver chart data...
Computing Atmospheric mass density...
Loading historical data...
Loading historical data...
Loading historical data...
Loading historical data...
Loading historical data...
Loading historical data...
Loading historical data...

Documentation

Showing up to 5 results
|